• Join FlightAware (Why Join?)
  • Login
  • US Flag 
05:18PM EDT


 

Airport Tracker/Info


-or-


 

Live Flight TrackerFlight Track Log ✈ CTL18 ✈ 17-Apr-2013 ✈ KBKL - KPTK

Flight Track Log - Related Links

Times and Time Zones

All times are in EDT time to prevent confusion due to time zone crossing. See the CTL18 flight status page for this flight to view local times or setup timezone preferences in your user account.

Time Position Orientation Groundspeed Altitude Reporting Facility
EDT Latitude Longitude Course Direction KTS MPH feet Rate Location/Type
10:05PM 41.5792 -81.7072 339° North 175 201 2,200  Level Cleveland Center
10:06PM 41.5975 -81.7633 294° West 180 207 2,700 540 Climbing Cleveland Center
10:07PM 41.6156 -81.8247 291° West 179 206 3,300 600 Climbing Cleveland Center
10:08PM 41.6358 -81.8833 295° West 170 196 4,000 360 Climbing Cleveland Center
10:09PM 41.6539 -81.9422 292° West 169 194 4,100  Climbing Cleveland Center
10:10PM 41.6717 -82.0064 290° West 172 198 4,100 -60 Level Cleveland Center
10:11PM 41.6897 -82.0625 293° West 168 193 4,000 -60 Descending Cleveland Center
10:12PM 41.7078 -82.1183 293° West 168 193 4,000  Level Cleveland Center
10:13PM 41.7217 -82.1772 288° West 165 190 4,000  Level Cleveland Center
10:14PM 41.7394 -82.2361 292° West 166 191 4,000  Level Cleveland Center
10:15PM 41.7533 -82.2950 288° West 166 191 4,000  Level Cleveland Center
10:16PM 41.7692 -82.3511 291° West 166 191 4,000  Level Cleveland Center
10:17PM 41.7828 -82.4153 286° West 168 193 4,000  Level Cleveland Center
10:17PM 41.7908 -82.4294 307° West 168 193 4,000  Level Cleveland Center
10:18PM 41.8047 -82.4661 297° West 171 197 4,000 -180 Level Cleveland Center
10:19PM 41.8225 -82.5364 289° West 187 215 3,700 -300 Descending Cleveland Center
10:20PM 41.8381 -82.5981 289° West 187 215 3,500 -360 Descending Cleveland Center
10:21PM 41.8661 -82.6606 301° West 200 230 3,100 -240 Descending Cleveland Center
10:22PM 41.9175 -82.7039 328° Northwest 199 229 3,000 -60 Descending Cleveland Center
10:23PM 41.9625 -82.7444 326° Northwest 194 223 3,000  Level Cleveland Center
10:24PM 41.9975 -82.7736 328° Northwest 191 220 3,100  Climbing Cleveland Center
10:25PM 42.0406 -82.8114 327° Northwest 194 223 3,100 -60 Level Cleveland Center
10:26PM 42.0856 -82.8439 332° Northwest 187 215 3,000  Descending Cleveland Center
10:27PM 42.1433 -82.8850 332° Northwest 188 216 3,100  Climbing Cleveland Center
10:28PM 42.1906 -82.9206 331° Northwest 195 224 3,100  Level Cleveland Center
10:29PM 42.2417 -82.9589 331° Northwest 194 223 3,100  Level Cleveland Center
10:31PM 42.3278 -83.0267 330° Northwest 194 223 3,100 -60 Level Cleveland Center
10:32PM 42.3772 -83.0567 336° Northwest 190 219 3,000 -60 Descending Cleveland Center
10:33PM 42.4250 -83.0669 351° North 179 206 3,000  Level Cleveland Center
10:34PM 42.4744 -83.0942 338° Northwest 186 214 3,100  Climbing Cleveland Center
10:35PM 42.5236 -83.1356 328° Northwest 189 217 3,000 -120 Descending Cleveland Center
10:37PM 42.5693 -83.2407 301° West  Level FlightAware Approximate
10:37PM 42.5983 -83.2375 301° West 190 219 2,800  Level Cleveland Center
10:38PM 42.6161 -83.2889 295° West 188 216 2,600 -300 Descending Cleveland Center
10:39PM 42.6583 -83.3528 312° West 170 196 2,200 -600 Descending Cleveland Center
10:40PM 42.6656 -83.3900 285° West 134 154 1,500 -900 Descending Cleveland Center
10:42PM 42.6500 -83.4167 304° West  Level FlightAware Approximate
10:49PM 42.6656 -83.4205 304° West  Level Estimated